IRIDIUM 11 [B]

Last updated on Wed Sep 26 2018 02:52:48 GMT+0000 (Coordinated Universal Time)

1 25578U 98074B 18267.95548736 -.00000057 00000-0 -25020-4 0 9993 2 25578 86.4202 61.3480 0002692 72.4476 38.6849 14.38595970 44087
UTC large
Height (km)
Speed (km/s)
/
Latitude / Longitude
Inclination (degrees)
Orbital Period (minutes)
Azimuth
Elevation
Range (km)
Doppler Factor

Next 0 passes for location: London (51.5072 / 0.1276)

Sorry there are no passes over London.